TimeCDT,TemperatureF,Dew PointF,Humidity,Sea Level PressureIn,VisibilityMPH,Wind Direction,Wind SpeedMPH,Gust SpeedMPH,PrecipitationIn,Events,Conditions,WindDirDegrees,DateUTC
12:12 AM,33.8,30.2,87,29.97,2.5,North,11.5,-,0.02,Snow,Light Snow,10,2013-04-23 05:12:00
12:21 AM,33.8,30.2,87,29.97,5.0,North,10.4,18.4,0.03,Snow,Light Snow,10,2013-04-23 05:21:00
12:56 AM,33.1,30.9,92,30.00,7.0,North,9.2,-,0.06,Rain,Rain,10,2013-04-23 05:56:00
1:13 AM,33.8,30.2,87,29.98,5.0,North,11.5,-,0.00,Snow,Light Snow,360,2013-04-23 06:13:00
1:21 AM,32.0,30.2,93,29.98,1.8,North,11.5,-,0.01,Snow,Light Snow,350,2013-04-23 06:21:00
1:32 AM,32.0,30.2,93,29.97,2.0,NNW,10.4,-,0.02,Snow,Light Snow,340,2013-04-23 06:32:00
1:45 AM,32.0,30.2,93,29.97,4.0,North,9.2,-,0.02,Snow,Light Snow,350,2013-04-23 06:45:00
1:56 AM,33.1,30.9,92,29.99,8.0,North,10.4,-,0.02,Snow,Light Snow,350,2013-04-23 06:56:00
2:15 AM,33.8,30.2,87,29.98,10.0,NNW,11.5,17.3,0.00,,Overcast,340,2013-04-23 07:15:00
2:56 AM,33.1,30.9,92,30.02,10.0,NW,10.4,-,0.00,,Overcast,320,2013-04-23 07:56:00
3:16 AM,33.8,30.2,87,29.99,7.0,NNW,11.5,21.9,N/A,,Overcast,330,2013-04-23 08:16:00
3:56 AM,33.1,30.0,89,30.01,8.0,NNW,11.5,-,0.00,Snow,Light Snow,330,2013-04-23 08:56:00
4:08 AM,33.8,30.2,87,29.98,9.0,NNW,11.5,-,0.00,,Overcast,330,2013-04-23 09:08:00
4:40 AM,33.8,30.2,87,29.97,10.0,NNW,12.7,-,0.00,,Overcast,340,2013-04-23 09:40:00
4:56 AM,33.1,30.0,89,30.01,10.0,NNW,12.7,-,0.00,,Overcast,330,2013-04-23 09:56:00
5:56 AM,33.1,30.0,89,30.04,10.0,NW,11.5,19.6,N/A,,Overcast,320,2013-04-23 10:56:00
6:41 AM,33.8,28.4,81,30.03,10.0,NW,10.4,18.4,N/A,,Mostly Cloudy,320,2013-04-23 11:41:00
6:56 AM,33.1,28.9,85,30.06,10.0,NW,12.7,-,N/A,,Overcast,320,2013-04-23 11:56:00
7:56 AM,33.1,28.0,82,30.08,10.0,NNW,13.8,-,N/A,,Overcast,330,2013-04-23 12:56:00
8:05 AM,33.8,28.4,81,30.04,10.0,NNW,10.4,-,N/A,,Overcast,330,2013-04-23 13:05:00
8:56 AM,34.0,28.0,79,30.08,10.0,NNW,10.4,-,N/A,,Scattered Clouds,340,2013-04-23 13:56:00
9:05 AM,33.8,28.4,81,30.06,10.0,NNW,9.2,18.4,N/A,,Mostly Cloudy,330,2013-04-23 14:05:00
9:56 AM,34.0,28.0,79,30.09,10.0,NNW,10.4,-,N/A,,Overcast,340,2013-04-23 14:56:00
10:54 AM,35.6,28.4,75,30.05,10.0,North,11.5,19.6,N/A,,Overcast,350,2013-04-23 15:54:00
10:56 AM,36.0,28.0,73,30.08,10.0,North,10.4,20.7,N/A,,Mostly Cloudy,350,2013-04-23 15:56:00
11:20 AM,37.4,28.4,70,30.06,10.0,North,11.5,19.6,N/A,,Mostly Cloudy,350,2013-04-23 16:20:00
11:56 AM,37.9,28.9,70,30.09,10.0,North,11.5,-,N/A,,Mostly Cloudy,350,2013-04-23 16:56:00
12:56 PM,37.9,28.0,68,30.07,10.0,NNW,9.2,-,N/A,,Overcast,340,2013-04-23 17:56:00
1:23 PM,37.4,26.6,65,30.04,10.0,NNW,11.5,-,N/A,,Overcast,340,2013-04-23 18:23:00
1:56 PM,37.9,26.1,62,30.08,10.0,NNW,10.4,-,N/A,,Overcast,330,2013-04-23 18:56:00
2:56 PM,39.0,24.1,55,30.06,10.0,NNW,10.4,-,N/A,,Overcast,330,2013-04-23 19:56:00
3:56 PM,41.0,24.1,51,30.06,10.0,NW,11.5,-,N/A,,Mostly Cloudy,320,2013-04-23 20:56:00
4:56 PM,42.1,21.0,43,30.05,10.0,North,11.5,-,N/A,,Mostly Cloudy,350,2013-04-23 21:56:00
5:56 PM,43.0,21.0,42,30.04,10.0,NNW,9.2,-,N/A,,Scattered Clouds,340,2013-04-23 22:56:00
6:56 PM,39.0,19.9,46,30.04,10.0,NW,9.2,-,N/A,,Scattered Clouds,320,2013-04-23 23:56:00
7:56 PM,37.9,19.9,48,30.04,10.0,NW,3.5,-,N/A,,Clear,310,2013-04-24 00:56:00
8:56 PM,33.1,21.9,64,30.06,10.0,West,4.6,-,N/A,,Clear,260,2013-04-24 01:56:00
9:56 PM,30.9,21.9,69,30.06,10.0,West,3.5,-,N/A,,Clear,270,2013-04-24 02:56:00
10:56 PM,32.0,21.9,66,30.05,10.0,WNW,5.8,-,N/A,,Clear,290,2013-04-24 03:56:00
11:56 PM,30.0,19.9,66,30.05,10.0,Calm,Calm,-,N/A,,Clear,0,2013-04-24 04:56:00